Weather History for Nebraska City, NE

Change the Weather History Date:

Thursday, February 27, 2014

  Actual Average (KSDA) Record (KSDA)
Temperature  
Mean Temperature 16 °F -  
Max Temperature 23 °F 45 °F 69 °F (1976)
Min Temperature 8 °F 27 °F -7 °F (1962)
Degree Days  
Heating Degree Days 50    
Moisture  
Dew Point 0 °F    
Average Humidity 50    
Maximum Humidity 74    
Minimum Humidity 28    
Precipitation  
Precipitation 0.00 in - - ()
Sea Level Pressure  
Sea Level Pressure 30.05 in    
Wind  
Wind Speed 8 mph (ENE)    
Max Wind Speed 16 mph    
Max Gust Speed 18 mph    
Visibility 10 miles    
Events      
Averages and records for this station are not official NWS values.
T = Trace of Precipitation, MM = Missing Value Source: NWS Daily Summary

Daily Weather History Graph

Daily Weather History Graph

Search for Another Location

Airport:

Trip Planner

Search our weather history database for the weather conditions in past years. The results will help you decide how hot, cold, wet, or windy it might be!

Date:

Astronomy

Feb. 27, 2014 Rise Set
Actual Time 7:00 AM CST 6:12 PM CST
Civil Twilight 6:32 AM CST 6:40 PM CST
Nautical Twilight 6:01 AM CST 7:11 PM CST
Astronomical Twilight 5:29 AM CST 7:43 PM CST
Moon 5:33 AM CST (2/27) 4:39 PM CST (2/27)
Length of Visible Light 12h 07m
Length of Day
11h 12m
Waning Crescent, 4% of the Moon is Illuminated
Feb 27
Waning Crescent
Mar 1
New
Mar 8
First Quarter
Mar 16
Full
Mar 23
Last Quarter

Hourly Weather History & Observations

Time (CST) Temp. Windchill Dew Point Humidity Pressure Visibility Wind Dir Wind Speed Gust Speed Precip Events Conditions
12:15 AM 23.0 °F 13.9 °F 14.9 °F 71% 29.98 in 10.0 mi NW 8.1 mph - N/A   Clear
12:35 AM 23.7 °F 14.0 °F 14.2 °F 67% 29.99 in 10.0 mi NNW 9.2 mph - N/A   Clear
12:55 AM 22.8 °F 13.6 °F 13.5 °F 67% 30.00 in 10.0 mi NNW 8.1 mph - N/A   Clear
1:15 AM 22.5 °F 13.2 °F 13.1 °F 67% 30.01 in 10.0 mi North 8.1 mph - N/A   Clear
1:35 AM 22.1 °F 11.3 °F 12.9 °F 68% 30.01 in 10.0 mi North 10.4 mph - N/A   Clear
1:55 AM 21.9 °F 11.7 °F 11.3 °F 64% 30.03 in 10.0 mi NNE 9.2 mph - N/A   Clear
2:15 AM 19.2 °F 11.3 °F 10.2 °F 68% 30.03 in 10.0 mi North 5.8 mph - N/A   Clear
2:35 AM 17.8 °F 9.6 °F 9.9 °F 71% 30.04 in 10.0 mi North 5.8 mph - N/A   Clear
2:55 AM 17.1 °F 10.0 °F 8.6 °F 69% 30.05 in 10.0 mi NNE 4.6 mph - N/A   Clear
3:15 AM 16.5 °F 8.1 °F 8.1 °F 69% 30.06 in 10.0 mi North 5.8 mph - N/A   Clear
3:35 AM 16.0 °F 7.4 °F 7.2 °F 68% 30.06 in 10.0 mi North 5.8 mph - N/A   Clear
3:55 AM 15.3 °F 5.4 °F 7.7 °F 72% 30.06 in 10.0 mi North 6.9 mph - N/A   Clear
4:15 AM 15.6 °F 3.2 °F 6.8 °F 68% 30.07 in 10.0 mi NNE 10.4 mph - N/A   Clear
4:35 AM 14.0 °F 2.0 °F 6.6 °F 72% 30.08 in 10.0 mi NE 9.2 mph - N/A   Clear
4:55 AM 13.1 °F -0.7 °F 5.9 °F 73% 30.09 in 10.0 mi NE 11.5 mph - N/A   Clear
5:15 AM 12.2 °F -2.5 °F 3.7 °F 69% 30.10 in 10.0 mi NNE 12.7 mph - N/A   Clear
5:35 AM 11.5 °F -1.1 °F 3.0 °F 69% 30.12 in 10.0 mi NNE 9.2 mph - N/A   Clear
5:55 AM 10.8 °F -2.8 °F 2.7 °F 70% 30.12 in 10.0 mi NE 10.4 mph - N/A   Clear
6:15 AM 10.4 °F -4.1 °F 1.8 °F 68% 30.12 in 10.0 mi NE 11.5 mph - N/A   Clear
6:35 AM 9.9 °F -6.7 °F 1.8 °F 70% 30.12 in 10.0 mi NE 15.0 mph - N/A   Clear
6:55 AM 9.0 °F -8.5 °F 2.1 °F 74% 30.12 in 10.0 mi NE 16.1 mph - N/A   Clear
7:15 AM 8.4 °F -7.3 °F 0.3 °F 70% 30.12 in 10.0 mi NE 12.7 mph - N/A   Clear
7:35 AM 8.6 °F -3.7 °F -1.7 °F 63% 30.15 in 10.0 mi NE 8.1 mph - N/A   Clear
7:55 AM 9.0 °F -5.9 °F -2.4 °F 60% 30.16 in 10.0 mi NNE 11.5 mph - N/A   Clear
8:15 AM 9.3 °F -3.8 °F -3.3 °F 57% 30.17 in 10.0 mi NE 9.2 mph - N/A   Clear
8:35 AM 9.5 °F -2.6 °F -5.3 °F 51% 30.18 in 10.0 mi NE 8.1 mph - N/A   Clear
8:55 AM 10.4 °F -1.5 °F -5.6 °F 49% 30.17 in 10.0 mi NNE 8.1 mph - N/A   Clear
9:15 AM 10.8 °F 0.0 °F -4.4 °F 51% 30.19 in 10.0 mi NNE 6.9 mph - N/A   Clear
9:35 AM 11.3 °F 0.7 °F -4.2 °F 50% 30.18 in 10.0 mi NE 6.9 mph - N/A   Clear
9:55 AM 11.7 °F 1.1 °F -5.1 °F 47% 30.18 in 10.0 mi NNE 6.9 mph - N/A   Clear
10:15 AM 12.9 °F 1.6 °F -9.0 °F 37% 30.18 in 10.0 mi ENE 8.1 mph - N/A   Clear
10:35 AM 12.7 °F -0.4 °F -8.7 °F 38% 30.18 in 10.0 mi NE 10.4 mph - N/A   Clear
10:55 AM 13.8 °F 1.8 °F -8.9 °F 36% 30.17 in 10.0 mi ENE 9.2 mph - N/A   Clear
11:15 AM 13.6 °F 2.5 °F -9.0 °F 36% 30.16 in 10.0 mi NE 8.1 mph - N/A   Clear
11:35 AM 15.4 °F - -7.8 °F 35% 30.16 in 10.0 mi Calm Calm - N/A   Clear
11:55 AM 16.0 °F 5.3 °F -7.2 °F 35% 30.14 in 10.0 mi NNE 8.1 mph - N/A   Clear
12:15 PM 17.1 °F 5.0 °F -8.1 °F 32% 30.12 in 10.0 mi ENE 10.4 mph - N/A   Clear
12:35 PM 18.1 °F 11.3 °F -6.0 °F 34% 30.11 in 10.0 mi ENE 4.6 mph 9.2 mph N/A   Clear
12:55 PM 19.0 °F 6.8 °F -5.1 °F 34% 30.09 in 10.0 mi ENE 11.5 mph - N/A   Clear
1:15 PM 19.6 °F 8.9 °F -5.8 °F 33% 30.07 in 10.0 mi ENE 9.2 mph - N/A   Clear
1:35 PM 20.3 °F 10.6 °F -4.5 °F 33% 30.07 in 10.0 mi East 8.1 mph - N/A   Clear
1:55 PM 20.8 °F 11.2 °F -4.7 °F 32% 30.07 in 10.0 mi NE 8.1 mph - N/A   Clear
2:15 PM 20.8 °F 16.0 °F -5.4 °F 31% 30.06 in 10.0 mi ESE 3.5 mph - N/A   Scattered Clouds
2:35 PM 21.0 °F 12.4 °F -6.2 °F 30% 30.05 in 10.0 mi SE 6.9 mph - N/A   Overcast
2:55 PM 21.2 °F 13.6 °F -5.8 °F 30% 30.04 in 10.0 mi ESE 5.8 mph - N/A   Overcast
3:15 PM 22.3 °F 11.5 °F -5.4 °F 30% 30.03 in 10.0 mi East 10.4 mph - N/A   Overcast
3:35 PM 22.3 °F 13.0 °F -6.5 °F 28% 30.01 in 10.0 mi ESE 8.1 mph - N/A   Overcast
3:55 PM 22.3 °F 11.5 °F -5.3 °F 30% 30.01 in 10.0 mi ESE 10.4 mph - N/A   Overcast
4:20 PM 22.3 °F 13.9 °F -6.7 °F 28% 30.01 in 10.0 mi SE 6.9 mph - N/A   Overcast
4:35 PM 22.1 °F 12.8 °F -5.3 °F 30% 30.00 in 10.0 mi East 8.1 mph - N/A   Mostly Cloudy
4:55 PM 21.7 °F 10.8 °F -5.3 °F 30% 30.00 in 10.0 mi ESE 10.4 mph - N/A   Mostly Cloudy
5:15 PM 21.7 °F 11.5 °F -3.5 °F 33% 29.99 in 10.0 mi ESE 9.2 mph - N/A   Overcast
5:35 PM 21.7 °F 11.5 °F -3.5 °F 33% 29.99 in 10.0 mi ESE 9.2 mph - N/A   Overcast
5:55 PM 21.6 °F 14.0 °F -2.6 °F 35% 29.99 in 10.0 mi SE 5.8 mph - N/A   Overcast
6:15 PM 21.0 °F 13.4 °F -2.0 °F 36% 29.99 in 10.0 mi ESE 5.8 mph - N/A   Overcast
6:35 PM 21.0 °F 12.4 °F -2.2 °F 36% 29.99 in 10.0 mi SE 6.9 mph - N/A   Mostly Cloudy
6:55 PM 21.0 °F 12.4 °F -2.6 °F 36% 29.99 in 10.0 mi SE 6.9 mph - N/A   Scattered Clouds
7:15 PM 19.4 °F 9.5 °F -1.3 °F 40% 29.98 in 10.0 mi ESE 8.1 mph - N/A   Clear
7:35 PM 19.0 °F 12.3 °F -1.3 °F 41% 29.98 in 10.0 mi ESE 4.6 mph - N/A   Clear
7:55 PM 18.3 °F 11.5 °F -0.8 °F 43% 29.99 in 10.0 mi East 4.6 mph - N/A   Clear
8:15 PM 17.6 °F 9.3 °F 0.1 °F 46% 29.98 in 10.0 mi East 5.8 mph - N/A   Clear
8:35 PM 17.8 °F 8.5 °F 0.3 °F 47% 29.96 in 10.0 mi East 6.9 mph - N/A   Clear
8:55 PM 16.9 °F 6.4 °F 4.1 °F 57% 29.96 in 10.0 mi ENE 8.1 mph - N/A   Clear
9:15 PM 15.8 °F 6.1 °F 5.0 °F 62% 29.95 in 10.0 mi East 6.9 mph - N/A   Clear
9:35 PM 15.6 °F 4.9 °F 4.3 °F 61% 29.94 in 10.0 mi East 8.1 mph - N/A   Clear
9:55 PM 15.4 °F 5.6 °F 4.6 °F 62% 29.93 in 10.0 mi East 6.9 mph - N/A   Mostly Cloudy
10:15 PM 15.4 °F 5.6 °F 4.3 °F 61% 29.92 in 10.0 mi East 6.9 mph - N/A   Scattered Clouds
10:35 PM 16.5 °F 6.0 °F 3.9 °F 58% 29.91 in 10.0 mi ESE 8.1 mph - N/A   Clear
10:55 PM 18.0 °F 5.4 °F 2.7 °F 51% 29.90 in 10.0 mi ESE 11.5 mph - N/A   Clear
11:15 PM 18.5 °F 8.4 °F 2.3 °F 49% 29.89 in 10.0 mi SE 8.1 mph - N/A   Clear
11:35 PM 19.4 °F 6.6 °F 1.9 °F 47% 29.88 in 10.0 mi ESE 12.7 mph 18.4 mph N/A   Clear
11:55 PM 19.8 °F 6.5 °F 1.6 °F 45% 29.88 in 10.0 mi SE 13.8 mph 18.4 mph N/A   Clear